Year,Month,Day,Hour,Minute,Value (Times are PST for temperature in C)
2007,05,29,00,00,7.10
2007,05,29,00,01,7.10
2007,05,29,00,02,7.10
2007,05,29,00,03,7.10
2007,05,29,00,04,7.10
2007,05,29,00,05,7.00
2007,05,29,00,06,7.00
2007,05,29,00,07,7.00
2007,05,29,00,08,7.00
2007,05,29,00,09,7.00
2007,05,29,00,10,7.00
2007,05,29,00,11,7.00
2007,05,29,00,12,7.00
2007,05,29,00,13,7.00
2007,05,29,00,14,7.00
2007,05,29,00,15,7.00
2007,05,29,00,16,7.00
2007,05,29,00,17,7.00
2007,05,29,00,18,7.00
2007,05,29,00,19,7.00
2007,05,29,00,20,7.00
2007,05,29,00,21,7.00
2007,05,29,00,22,7.00
2007,05,29,00,23,7.00
2007,05,29,00,24,7.00
2007,05,29,00,25,6.90
2007,05,29,00,26,6.90
2007,05,29,00,27,6.90
2007,05,29,00,28,6.80
2007,05,29,00,29,6.80
2007,05,29,00,30,6.80
2007,05,29,00,31,6.80
2007,05,29,00,32,6.70
2007,05,29,00,33,6.70
2007,05,29,00,34,6.70
2007,05,29,00,35,6.70
2007,05,29,00,36,6.70
2007,05,29,00,37,6.60
2007,05,29,00,38,6.60
2007,05,29,00,39,6.60
2007,05,29,00,40,6.60
2007,05,29,00,41,6.60
2007,05,29,00,42,6.60
2007,05,29,00,43,6.70
2007,05,29,00,44,6.70
2007,05,29,00,45,6.70
2007,05,29,00,46,6.70
2007,05,29,00,47,6.70
2007,05,29,00,48,6.70
2007,05,29,00,49,6.70
2007,05,29,00,50,6.70
2007,05,29,00,51,6.70
2007,05,29,00,52,6.70
2007,05,29,00,53,6.70
2007,05,29,00,54,6.70
2007,05,29,00,55,6.70
2007,05,29,00,56,6.70
2007,05,29,00,57,6.70
2007,05,29,00,58,6.70
2007,05,29,00,59,6.70
2007,05,29,01,00,6.70
2007,05,29,01,01,6.70
2007,05,29,01,02,6.70
2007,05,29,01,03,6.70
2007,05,29,01,04,6.60
2007,05,29,01,05,6.60
2007,05,29,01,06,6.60
2007,05,29,01,07,6.60
2007,05,29,01,08,6.60
2007,05,29,01,09,6.60
2007,05,29,01,10,6.60
2007,05,29,01,11,6.60
2007,05,29,01,12,6.60
2007,05,29,01,13,6.60
2007,05,29,01,14,6.60
2007,05,29,01,15,6.60
2007,05,29,01,16,6.60
2007,05,29,01,17,6.60
2007,05,29,01,18,6.60
2007,05,29,01,19,6.60
2007,05,29,01,20,6.60
2007,05,29,01,21,6.60
2007,05,29,01,22,6.60
2007,05,29,01,23,6.60
2007,05,29,01,24,6.60
2007,05,29,01,25,6.60
2007,05,29,01,26,6.60
2007,05,29,01,27,6.60
2007,05,29,01,28,6.60
2007,05,29,01,29,6.60
2007,05,29,01,30,6.60
2007,05,29,01,31,6.60
2007,05,29,01,32,6.60
2007,05,29,01,33,6.60
2007,05,29,01,34,6.60
2007,05,29,01,35,6.60
2007,05,29,01,36,6.60
2007,05,29,01,37,6.60
2007,05,29,01,38,6.60
2007,05,29,01,39,6.60
2007,05,29,01,40,6.60
2007,05,29,01,41,6.50
2007,05,29,01,42,6.50
2007,05,29,01,43,6.50
2007,05,29,01,44,6.50
2007,05,29,01,45,6.50
2007,05,29,01,46,6.50
2007,05,29,01,47,6.60
2007,05,29,01,48,6.60
2007,05,29,01,49,6.60
2007,05,29,01,50,6.60
2007,05,29,01,51,6.60
2007,05,29,01,52,6.60
2007,05,29,01,53,6.60
2007,05,29,01,54,6.60
2007,05,29,01,55,6.50
2007,05,29,01,56,6.50
2007,05,29,01,57,6.50
2007,05,29,01,58,6.50
2007,05,29,01,59,6.50
2007,05,29,02,00,6.50
2007,05,29,02,01,6.50
2007,05,29,02,02,6.50
2007,05,29,02,03,6.50
2007,05,29,02,04,6.40
2007,05,29,02,05,6.40
2007,05,29,02,06,6.40
2007,05,29,02,07,6.40
2007,05,29,02,08,6.30
2007,05,29,02,09,6.30
2007,05,29,02,10,6.30
2007,05,29,02,11,6.30
2007,05,29,02,12,6.30
2007,05,29,02,13,6.30
2007,05,29,02,14,6.30
2007,05,29,02,15,6.30
2007,05,29,02,16,6.30
2007,05,29,02,17,6.30
2007,05,29,02,18,6.30
2007,05,29,02,19,6.30
2007,05,29,02,20,6.30
2007,05,29,02,21,6.30
2007,05,29,02,22,6.30
2007,05,29,02,23,6.30
2007,05,29,02,24,6.20
2007,05,29,02,25,6.20
2007,05,29,02,26,6.20
2007,05,29,02,27,6.20
2007,05,29,02,28,6.20
2007,05,29,02,29,6.20
2007,05,29,02,30,6.30
2007,05,29,02,31,6.20
2007,05,29,02,32,6.30
2007,05,29,02,33,6.30
2007,05,29,02,34,6.30
2007,05,29,02,35,6.30
2007,05,29,02,36,6.30
2007,05,29,02,37,6.40
2007,05,29,02,38,6.40
2007,05,29,02,39,6.40
2007,05,29,02,40,6.50
2007,05,29,02,41,6.40
2007,05,29,02,42,6.40
2007,05,29,02,43,6.40
2007,05,29,02,44,6.40
2007,05,29,02,45,6.40
2007,05,29,02,46,6.40
2007,05,29,02,47,6.40
2007,05,29,02,48,6.40
2007,05,29,02,49,6.40
2007,05,29,02,50,6.40
2007,05,29,02,51,6.40
2007,05,29,02,52,6.40
2007,05,29,02,53,6.40
2007,05,29,02,54,6.30
2007,05,29,02,55,6.30
2007,05,29,02,56,6.30
2007,05,29,02,57,6.30
2007,05,29,02,58,6.30
2007,05,29,02,59,6.30
2007,05,29,03,00,6.20
2007,05,29,03,01,6.20
2007,05,29,03,02,6.30
2007,05,29,03,03,6.30
2007,05,29,03,04,6.30
2007,05,29,03,05,6.30
2007,05,29,03,06,6.30
2007,05,29,03,07,6.30
2007,05,29,03,08,6.30
2007,05,29,03,09,6.30
2007,05,29,03,10,6.30
2007,05,29,03,11,6.30
2007,05,29,03,12,6.30
2007,05,29,03,13,6.30
2007,05,29,03,14,6.20
2007,05,29,03,15,6.20
2007,05,29,03,16,6.20
2007,05,29,03,17,6.10
2007,05,29,03,18,6.10
2007,05,29,03,19,6.10
2007,05,29,03,20,6.10
2007,05,29,03,21,6.00
2007,05,29,03,22,6.00
2007,05,29,03,23,6.00
2007,05,29,03,24,6.00
2007,05,29,03,25,5.90
2007,05,29,03,26,5.90
2007,05,29,03,27,5.90
2007,05,29,03,28,5.90
2007,05,29,03,29,5.90
2007,05,29,03,30,5.90
2007,05,29,03,31,5.90
2007,05,29,03,32,5.90
2007,05,29,03,33,5.90
2007,05,29,03,34,5.90
2007,05,29,03,35,5.90
2007,05,29,03,36,5.90
2007,05,29,03,37,5.90
2007,05,29,03,38,5.80
2007,05,29,03,39,5.80
2007,05,29,03,40,5.80
2007,05,29,03,41,5.80
2007,05,29,03,42,5.70
2007,05,29,03,43,5.70
2007,05,29,03,44,5.70
2007,05,29,03,45,5.70
2007,05,29,03,46,5.70
2007,05,29,03,47,5.70
2007,05,29,03,48,5.70
2007,05,29,03,49,5.70
2007,05,29,03,50,5.70
2007,05,29,03,51,5.70
2007,05,29,03,52,5.70
2007,05,29,03,53,5.70
2007,05,29,03,54,5.70
2007,05,29,03,55,5.70
2007,05,29,03,56,5.80
2007,05,29,03,57,5.80
2007,05,29,03,58,5.90
2007,05,29,03,59,5.90
2007,05,29,04,00,6.00
2007,05,29,04,01,6.00
2007,05,29,04,02,6.10
2007,05,29,04,03,6.20
2007,05,29,04,04,6.20
2007,05,29,04,05,6.20
2007,05,29,04,06,6.20
2007,05,29,04,07,6.20
2007,05,29,04,08,6.20
2007,05,29,04,09,6.30
2007,05,29,04,10,6.30
2007,05,29,04,11,6.30
2007,05,29,04,12,6.40
2007,05,29,04,13,6.50
2007,05,29,04,14,6.50
2007,05,29,04,15,6.60
2007,05,29,04,16,6.60
2007,05,29,04,17,6.70
2007,05,29,04,18,6.70
2007,05,29,04,19,6.70
2007,05,29,04,20,6.70
2007,05,29,04,21,6.70
2007,05,29,04,22,6.80
2007,05,29,04,23,6.80
2007,05,29,04,24,6.80
2007,05,29,04,25,6.80
2007,05,29,04,26,6.80
2007,05,29,04,27,6.90
2007,05,29,04,28,6.90
2007,05,29,04,29,7.00
2007,05,29,04,30,7.10
2007,05,29,04,31,7.10
2007,05,29,04,32,7.20
2007,05,29,04,33,7.20
2007,05,29,04,34,7.20
2007,05,29,04,35,7.20
2007,05,29,04,36,7.20
2007,05,29,04,37,7.20
2007,05,29,04,38,7.20
2007,05,29,04,39,7.20
2007,05,29,04,40,7.30
2007,05,29,04,41,7.30
2007,05,29,04,42,7.30
2007,05,29,04,43,7.40
2007,05,29,04,44,7.40
2007,05,29,04,45,7.40
2007,05,29,04,46,7.50
2007,05,29,04,47,7.50
2007,05,29,04,48,7.50
2007,05,29,04,49,7.50
2007,05,29,04,50,7.50
2007,05,29,04,51,7.50
2007,05,29,04,52,7.60
2007,05,29,04,53,7.60
2007,05,29,04,54,7.60
2007,05,29,04,55,7.60
2007,05,29,04,56,7.50
2007,05,29,04,57,7.50
2007,05,29,04,58,7.50
2007,05,29,04,59,7.40
2007,05,29,05,00,7.40
2007,05,29,05,01,7.40
2007,05,29,05,02,7.40
2007,05,29,05,03,7.40
2007,05,29,05,04,7.40
2007,05,29,05,05,7.30
2007,05,29,05,06,7.30
2007,05,29,05,07,7.30
2007,05,29,05,08,7.20
2007,05,29,05,09,7.20
2007,05,29,05,10,7.20
2007,05,29,05,11,7.20
2007,05,29,05,12,7.10
2007,05,29,05,13,7.10
2007,05,29,05,14,7.00
2007,05,29,05,15,7.00
2007,05,29,05,16,6.90
2007,05,29,05,17,6.90
2007,05,29,05,18,6.90
2007,05,29,05,19,6.90
2007,05,29,05,20,6.90
2007,05,29,05,21,6.90
2007,05,29,05,22,6.90
2007,05,29,05,23,6.80
2007,05,29,05,24,6.80
2007,05,29,05,25,6.80
2007,05,29,05,26,6.80
2007,05,29,05,27,6.80
2007,05,29,05,28,6.80
2007,05,29,05,29,6.80
2007,05,29,05,30,6.80
2007,05,29,05,31,6.90
2007,05,29,05,32,6.90
2007,05,29,05,33,6.90
2007,05,29,05,34,6.90
2007,05,29,05,35,7.00
2007,05,29,05,36,7.00
2007,05,29,05,37,7.10
2007,05,29,05,38,7.10
2007,05,29,05,39,7.20
2007,05,29,05,40,7.20
2007,05,29,05,41,7.20
2007,05,29,05,42,7.30
2007,05,29,05,43,7.40
2007,05,29,05,44,7.40
2007,05,29,05,45,7.40
2007,05,29,05,46,7.50
2007,05,29,05,47,7.50
2007,05,29,05,48,7.50
2007,05,29,05,49,7.50
2007,05,29,05,50,7.50
2007,05,29,05,51,7.50
2007,05,29,05,52,7.50
2007,05,29,05,53,7.60
2007,05,29,05,54,7.60
2007,05,29,05,55,7.60
2007,05,29,05,56,7.60
2007,05,29,05,57,7.70
2007,05,29,05,58,7.70
2007,05,29,05,59,7.70
2007,05,29,06,00,7.70
2007,05,29,06,01,7.80
2007,05,29,06,02,7.80
2007,05,29,06,03,7.80
2007,05,29,06,04,7.90
2007,05,29,06,05,8.00
2007,05,29,06,06,8.10
2007,05,29,06,07,8.20
2007,05,29,06,08,8.30
2007,05,29,06,09,8.40
2007,05,29,06,10,8.50
2007,05,29,06,11,8.50
2007,05,29,06,12,8.60
2007,05,29,06,13,8.60
2007,05,29,06,14,8.70
2007,05,29,06,15,8.70
2007,05,29,06,16,8.80
2007,05,29,06,17,8.90
2007,05,29,06,18,8.90
2007,05,29,06,19,9.00
2007,05,29,06,20,9.00
2007,05,29,06,21,9.10
2007,05,29,06,22,9.20
2007,05,29,06,23,9.30
2007,05,29,06,24,9.30
2007,05,29,06,25,9.40
2007,05,29,06,26,9.50
2007,05,29,06,27,9.60
2007,05,29,06,28,9.60
2007,05,29,06,29,9.70
2007,05,29,06,30,9.70
2007,05,29,06,31,9.80
2007,05,29,06,32,9.90
2007,05,29,06,33,9.90
2007,05,29,06,34,10.00
2007,05,29,06,35,10.00
2007,05,29,06,36,10.10
2007,05,29,06,37,10.10
2007,05,29,06,38,10.20
2007,05,29,06,39,10.20
2007,05,29,06,40,10.20
2007,05,29,06,41,10.30
2007,05,29,06,42,10.30
2007,05,29,06,43,10.30
2007,05,29,06,44,10.40
2007,05,29,06,45,10.40
2007,05,29,06,46,10.40
2007,05,29,06,47,10.50
2007,05,29,06,48,10.50
2007,05,29,06,49,10.60
2007,05,29,06,50,10.60
2007,05,29,06,51,10.70
2007,05,29,06,52,10.70
2007,05,29,06,53,10.70
2007,05,29,06,54,10.80
2007,05,29,06,55,10.80
2007,05,29,06,56,10.80
2007,05,29,06,57,10.80
2007,05,29,06,58,10.80
2007,05,29,06,59,10.80
2007,05,29,07,00,10.80
2007,05,29,07,01,10.80
2007,05,29,07,02,10.80
2007,05,29,07,03,10.90
2007,05,29,07,04,10.90
2007,05,29,07,05,10.90
2007,05,29,07,06,11.00
2007,05,29,07,07,11.00
2007,05,29,07,08,11.00
2007,05,29,07,09,11.10
2007,05,29,07,10,11.10
2007,05,29,07,11,11.10
2007,05,29,07,12,11.20
2007,05,29,07,13,11.20
2007,05,29,07,14,11.20
2007,05,29,07,15,11.20
2007,05,29,07,16,11.20
2007,05,29,07,17,11.30
2007,05,29,07,18,11.30
2007,05,29,07,19,11.30
2007,05,29,07,20,11.40
2007,05,29,07,21,11.40
2007,05,29,07,22,11.50
2007,05,29,07,23,11.50
2007,05,29,07,24,11.60
2007,05,29,07,25,11.60
2007,05,29,07,26,11.60
2007,05,29,07,27,11.70
2007,05,29,07,28,11.70
2007,05,29,07,29,11.80
2007,05,29,07,30,11.80
2007,05,29,07,31,11.90
2007,05,29,07,32,12.00
2007,05,29,07,33,12.10
2007,05,29,07,34,12.10
2007,05,29,07,35,12.20
2007,05,29,07,36,12.30
2007,05,29,07,37,12.40
2007,05,29,07,38,12.50
2007,05,29,07,39,12.60
2007,05,29,07,40,12.70
2007,05,29,07,41,12.80
2007,05,29,07,42,12.80
2007,05,29,07,43,12.90
2007,05,29,07,44,13.00
2007,05,29,07,45,13.10
2007,05,29,07,46,13.20
2007,05,29,07,47,13.30
2007,05,29,07,48,13.30
2007,05,29,07,49,13.50
2007,05,29,07,50,13.60
2007,05,29,07,51,13.70
2007,05,29,07,52,13.80
2007,05,29,07,53,13.80
2007,05,29,07,54,13.90
2007,05,29,07,55,13.90
2007,05,29,07,56,13.90
2007,05,29,07,57,13.90
2007,05,29,07,58,13.90
2007,05,29,07,59,13.90
2007,05,29,08,00,13.90
2007,05,29,08,01,13.90
2007,05,29,08,02,13.90
2007,05,29,08,03,13.90
2007,05,29,08,04,14.00
2007,05,29,08,05,14.00
2007,05,29,08,06,13.90
2007,05,29,08,07,13.90
2007,05,29,08,08,13.90
2007,05,29,08,09,13.90
2007,05,29,08,10,13.90
2007,05,29,08,11,13.90
2007,05,29,08,12,13.90
2007,05,29,08,13,13.90
2007,05,29,08,14,13.90
2007,05,29,08,15,13.90
2007,05,29,08,16,13.90
2007,05,29,08,17,14.00
2007,05,29,08,18,14.10
2007,05,29,08,19,14.20
2007,05,29,08,20,14.20
2007,05,29,08,21,14.30
2007,05,29,08,22,14.30
2007,05,29,08,23,14.30
2007,05,29,08,24,14.40
2007,05,29,08,25,14.40
2007,05,29,08,26,14.50
2007,05,29,08,27,14.60
2007,05,29,08,28,14.50
2007,05,29,08,29,14.50
2007,05,29,08,30,14.50
2007,05,29,08,31,14.60
2007,05,29,08,32,14.60
2007,05,29,08,33,14.70
2007,05,29,08,34,14.80
2007,05,29,08,35,14.80
2007,05,29,08,36,14.90
2007,05,29,08,37,14.90
2007,05,29,08,38,15.00
2007,05,29,08,39,15.00
2007,05,29,08,40,15.00
2007,05,29,08,41,15.00
2007,05,29,08,42,15.00
2007,05,29,08,43,15.00
2007,05,29,08,44,15.00
2007,05,29,08,45,15.00
2007,05,29,08,46,15.00
2007,05,29,08,47,15.00
2007,05,29,08,48,15.10
2007,05,29,08,49,15.20
2007,05,29,08,50,15.20
2007,05,29,08,51,15.30
2007,05,29,08,52,15.40
2007,05,29,08,53,15.40
2007,05,29,08,54,15.50
2007,05,29,08,55,15.50
2007,05,29,08,56,15.50
2007,05,29,08,57,15.60
2007,05,29,08,58,15.60
2007,05,29,08,59,15.60
2007,05,29,09,00,15.70
2007,05,29,09,01,15.80
2007,05,29,09,02,15.80
2007,05,29,09,03,15.90
2007,05,29,09,04,16.00
2007,05,29,09,05,16.00
2007,05,29,09,06,16.10
2007,05,29,09,07,16.10
2007,05,29,09,08,16.10
2007,05,29,09,09,16.20
2007,05,29,09,10,16.30
2007,05,29,09,11,16.40
2007,05,29,09,12,16.40
2007,05,29,09,13,16.40
2007,05,29,09,14,16.50
2007,05,29,09,15,16.60
2007,05,29,09,16,16.60
2007,05,29,09,17,16.60
2007,05,29,09,18,16.60
2007,05,29,09,19,16.50
2007,05,29,09,20,16.50
2007,05,29,09,21,16.60
2007,05,29,09,22,16.60
2007,05,29,09,23,16.70
2007,05,29,09,24,16.70
2007,05,29,09,25,16.70
2007,05,29,09,26,16.70
2007,05,29,09,27,16.70
2007,05,29,09,28,16.70
2007,05,29,09,29,16.70
2007,05,29,09,30,16.70
2007,05,29,09,31,16.80
2007,05,29,09,32,16.80
2007,05,29,09,33,16.80
2007,05,29,09,34,16.80
2007,05,29,09,35,16.80
2007,05,29,09,36,16.80
2007,05,29,09,37,16.80
2007,05,29,09,38,16.70
2007,05,29,09,39,16.70
2007,05,29,09,40,16.60
2007,05,29,09,41,16.70
2007,05,29,09,42,16.80
2007,05,29,09,43,16.80
2007,05,29,09,44,16.80
2007,05,29,09,45,16.80
2007,05,29,09,46,16.90
2007,05,29,09,47,17.00
2007,05,29,09,48,17.10
2007,05,29,09,49,17.00
2007,05,29,09,50,16.90
2007,05,29,09,51,17.00
2007,05,29,09,52,17.10
2007,05,29,09,53,17.10
2007,05,29,09,54,17.20
2007,05,29,09,55,17.30
2007,05,29,09,56,17.30
2007,05,29,09,57,17.40
2007,05,29,09,58,17.50
2007,05,29,09,59,17.60
2007,05,29,10,00,17.70
2007,05,29,10,01,17.70
2007,05,29,10,02,17.80
2007,05,29,10,03,17.80
2007,05,29,10,04,17.80
2007,05,29,10,05,17.70
2007,05,29,10,06,17.50
2007,05,29,10,07,17.40
2007,05,29,10,08,17.30
2007,05,29,10,09,17.30
2007,05,29,10,10,17.30
2007,05,29,10,11,17.40
2007,05,29,10,12,17.40
2007,05,29,10,13,17.50
2007,05,29,10,14,17.40
2007,05,29,10,15,17.40
2007,05,29,10,16,17.50
2007,05,29,10,17,17.50
2007,05,29,10,18,17.40
2007,05,29,10,19,17.50
2007,05,29,10,20,17.60
2007,05,29,10,21,17.60
2007,05,29,10,22,17.50
2007,05,29,10,23,17.40
2007,05,29,10,24,17.40
2007,05,29,10,25,17.40
2007,05,29,10,26,17.40
2007,05,29,10,27,17.50
2007,05,29,10,28,17.60
2007,05,29,10,29,17.60
2007,05,29,10,30,17.60
2007,05,29,10,31,17.70
2007,05,29,10,32,17.70
2007,05,29,10,33,17.80
2007,05,29,10,34,17.70
2007,05,29,10,35,17.80
2007,05,29,10,36,17.80
2007,05,29,10,37,17.90
2007,05,29,10,38,18.00
2007,05,29,10,39,18.10
2007,05,29,10,40,18.20
2007,05,29,10,41,18.20
2007,05,29,10,42,18.10
2007,05,29,10,43,18.00
2007,05,29,10,44,18.00
2007,05,29,10,45,18.10
2007,05,29,10,46,18.10
2007,05,29,10,47,18.20
2007,05,29,10,48,18.30
2007,05,29,10,49,18.20
2007,05,29,10,50,18.20
2007,05,29,10,51,18.10
2007,05,29,10,52,18.00
2007,05,29,10,53,17.90
2007,05,29,10,54,17.80
2007,05,29,10,55,17.60
2007,05,29,10,56,17.60
2007,05,29,10,57,17.60
2007,05,29,10,58,17.60
2007,05,29,10,59,17.70
2007,05,29,11,00,17.80
2007,05,29,11,01,18.00
2007,05,29,11,02,18.20
2007,05,29,11,03,18.30
2007,05,29,11,04,18.30
2007,05,29,11,05,18.50
2007,05,29,11,06,18.60
2007,05,29,11,07,18.60
2007,05,29,11,08,18.60
2007,05,29,11,09,18.70
2007,05,29,11,10,18.70
2007,05,29,11,11,18.70
2007,05,29,11,12,18.80
2007,05,29,11,13,18.90
2007,05,29,11,14,19.00
2007,05,29,11,15,19.00
2007,05,29,11,16,19.00
2007,05,29,11,17,19.00
2007,05,29,11,18,19.00
2007,05,29,11,19,18.90
2007,05,29,11,20,18.80
2007,05,29,11,21,18.70
2007,05,29,11,22,18.70
2007,05,29,11,23,18.70
2007,05,29,11,24,18.80
2007,05,29,11,25,18.90
2007,05,29,11,26,18.80
2007,05,29,11,27,18.70
2007,05,29,11,28,18.60
2007,05,29,11,29,18.50
2007,05,29,11,30,18.50
2007,05,29,11,31,18.60
2007,05,29,11,32,18.60
2007,05,29,11,33,18.60
2007,05,29,11,34,18.70
2007,05,29,11,35,18.80
2007,05,29,11,36,18.90
2007,05,29,11,37,19.00
2007,05,29,11,38,19.10
2007,05,29,11,39,19.20
2007,05,29,11,40,19.30
2007,05,29,11,41,19.30
2007,05,29,11,42,19.30
2007,05,29,11,43,19.40
2007,05,29,11,44,19.40
2007,05,29,11,45,19.50
2007,05,29,11,46,19.50
2007,05,29,11,47,19.40
2007,05,29,11,48,19.40
2007,05,29,11,49,19.40
2007,05,29,11,50,19.30
2007,05,29,11,51,19.10
2007,05,29,11,52,19.10
2007,05,29,11,53,19.00
2007,05,29,11,54,18.80
2007,05,29,11,55,18.60
2007,05,29,11,56,18.40
2007,05,29,11,57,18.20
2007,05,29,11,58,18.00
2007,05,29,11,59,17.90
2007,05,29,12,00,17.80
2007,05,29,12,01,17.70
2007,05,29,12,02,17.70
2007,05,29,12,03,17.80
2007,05,29,12,04,17.80
2007,05,29,12,05,17.80
2007,05,29,12,06,17.80
2007,05,29,12,07,17.90
2007,05,29,12,08,17.90
2007,05,29,12,09,18.00
2007,05,29,12,10,18.10
2007,05,29,12,11,18.20
2007,05,29,12,12,18.20
2007,05,29,12,13,18.30
2007,05,29,12,14,18.50
2007,05,29,12,15,18.60
2007,05,29,12,16,18.60
2007,05,29,12,17,18.70
2007,05,29,12,18,18.70
2007,05,29,12,19,18.60
2007,05,29,12,20,18.60
2007,05,29,12,21,18.70
2007,05,29,12,22,18.80
2007,05,29,12,23,18.90
2007,05,29,12,24,18.90
2007,05,29,12,25,19.00
2007,05,29,12,26,19.00
2007,05,29,12,27,19.10
2007,05,29,12,28,19.20
2007,05,29,12,29,19.30
2007,05,29,12,30,19.30
2007,05,29,12,31,19.50
2007,05,29,12,32,19.60
2007,05,29,12,33,19.60
2007,05,29,12,34,19.60
2007,05,29,12,35,19.60
2007,05,29,12,36,19.60
2007,05,29,12,37,19.50
2007,05,29,12,38,19.40
2007,05,29,12,39,19.20
2007,05,29,12,40,19.10
2007,05,29,12,41,18.90
2007,05,29,12,42,18.80
2007,05,29,12,43,18.80
2007,05,29,12,44,18.80
2007,05,29,12,45,18.90
2007,05,29,12,46,18.90
2007,05,29,12,47,18.90
2007,05,29,12,48,18.90
2007,05,29,12,49,18.90
2007,05,29,12,50,18.90
2007,05,29,12,51,18.90
2007,05,29,12,52,19.00
2007,05,29,12,53,19.00
2007,05,29,12,54,19.00
2007,05,29,12,55,19.00
2007,05,29,12,56,18.90
2007,05,29,12,57,18.90
2007,05,29,12,58,18.80
2007,05,29,12,59,18.80
2007,05,29,13,00,18.70
2007,05,29,13,01,18.70
2007,05,29,13,02,18.60
2007,05,29,13,03,18.60
2007,05,29,13,04,18.70
2007,05,29,13,05,18.70
2007,05,29,13,06,18.70
2007,05,29,13,07,18.80
2007,05,29,13,08,19.00
2007,05,29,13,09,19.00
2007,05,29,13,10,19.10
2007,05,29,13,11,19.20
2007,05,29,13,12,19.30
2007,05,29,13,13,19.40
2007,05,29,13,14,19.40
2007,05,29,13,15,19.30
2007,05,29,13,16,19.20
2007,05,29,13,17,19.10
2007,05,29,13,18,19.20
2007,05,29,13,19,19.10
2007,05,29,13,20,19.00
2007,05,29,13,21,18.90
2007,05,29,13,22,18.80
2007,05,29,13,23,18.60
2007,05,29,13,24,18.50
2007,05,29,13,25,18.50
2007,05,29,13,26,18.70
2007,05,29,13,27,18.80
2007,05,29,13,28,18.90
2007,05,29,13,29,18.90
2007,05,29,13,30,18.90
2007,05,29,13,31,18.90
2007,05,29,13,32,18.90
2007,05,29,13,33,18.90
2007,05,29,13,34,19.00
2007,05,29,13,35,19.00
2007,05,29,13,36,19.10
2007,05,29,13,37,19.10
2007,05,29,13,38,19.20
2007,05,29,13,39,19.20
2007,05,29,13,40,19.00
2007,05,29,13,41,19.00
2007,05,29,13,42,19.10
2007,05,29,13,43,19.10
2007,05,29,13,44,19.20
2007,05,29,13,45,19.20
2007,05,29,13,46,19.30
2007,05,29,13,47,19.40
2007,05,29,13,48,19.60
2007,05,29,13,49,19.80
2007,05,29,13,50,19.90
2007,05,29,13,51,19.90
2007,05,29,13,52,19.90
2007,05,29,13,53,20.00
2007,05,29,13,54,19.90
2007,05,29,13,55,19.70
2007,05,29,13,56,19.60
2007,05,29,13,57,19.50
2007,05,29,13,58,19.50
2007,05,29,13,59,19.50
2007,05,29,14,00,19.50
2007,05,29,14,01,19.40
2007,05,29,14,02,19.30
2007,05,29,14,03,19.20
2007,05,29,14,04,19.20
2007,05,29,14,05,19.10
2007,05,29,14,06,19.10
2007,05,29,14,07,19.00
2007,05,29,14,08,18.90
2007,05,29,14,09,18.90
2007,05,29,14,10,18.90
2007,05,29,14,11,18.90
2007,05,29,14,12,19.00
2007,05,29,14,13,19.00
2007,05,29,14,14,18.90
2007,05,29,14,15,18.90
2007,05,29,14,16,18.90
2007,05,29,14,17,18.80
2007,05,29,14,18,18.80
2007,05,29,14,19,18.80
2007,05,29,14,20,18.90
2007,05,29,14,21,18.90
2007,05,29,14,22,18.90
2007,05,29,14,23,18.80
2007,05,29,14,24,18.60
2007,05,29,14,25,18.60
2007,05,29,14,26,18.60
2007,05,29,14,27,18.70
2007,05,29,14,28,18.80
2007,05,29,14,29,18.70
2007,05,29,14,30,18.70
2007,05,29,14,31,18.70
2007,05,29,14,32,18.80
2007,05,29,14,33,18.70
2007,05,29,14,34,18.60
2007,05,29,14,35,18.60
2007,05,29,14,36,18.70
2007,05,29,14,37,18.70
2007,05,29,14,38,18.80
2007,05,29,14,39,18.90
2007,05,29,14,40,18.90
2007,05,29,14,41,18.90
2007,05,29,14,42,18.90
2007,05,29,14,43,19.00
2007,05,29,14,44,19.10
2007,05,29,14,45,19.20
2007,05,29,14,46,19.20
2007,05,29,14,47,19.10
2007,05,29,14,48,19.10
2007,05,29,14,49,19.00
2007,05,29,14,50,19.00
2007,05,29,14,51,18.90
2007,05,29,14,52,18.90
2007,05,29,14,53,18.90
2007,05,29,14,54,19.00
2007,05,29,14,55,19.00
2007,05,29,14,56,19.00
2007,05,29,14,57,18.90
2007,05,29,14,58,18.80
2007,05,29,14,59,18.80
2007,05,29,15,00,18.70
2007,05,29,15,01,18.70
2007,05,29,15,02,18.50
2007,05,29,15,03,18.40
2007,05,29,15,04,18.20
2007,05,29,15,05,18.00
2007,05,29,15,06,17.80
2007,05,29,15,07,17.70
2007,05,29,15,08,17.50
2007,05,29,15,09,17.50
2007,05,29,15,10,17.30
2007,05,29,15,11,17.10
2007,05,29,15,12,16.90
2007,05,29,15,13,16.80
2007,05,29,15,14,16.60
2007,05,29,15,15,16.60
2007,05,29,15,16,16.60
2007,05,29,15,17,16.70
2007,05,29,15,18,16.60
2007,05,29,15,19,16.60
2007,05,29,15,20,16.60
2007,05,29,15,21,16.70
2007,05,29,15,22,16.70
2007,05,29,15,23,16.80
2007,05,29,15,24,16.80
2007,05,29,15,25,16.80
2007,05,29,15,26,16.90
2007,05,29,15,27,17.00
2007,05,29,15,28,17.10
2007,05,29,15,29,17.10
2007,05,29,15,30,17.00
2007,05,29,15,31,16.80
2007,05,29,15,32,16.60
2007,05,29,15,33,16.60
2007,05,29,15,34,16.60
2007,05,29,15,35,16.50
2007,05,29,15,36,16.40
2007,05,29,15,37,16.30
2007,05,29,15,38,16.30
2007,05,29,15,39,16.10
2007,05,29,15,40,16.00
2007,05,29,15,41,15.90
2007,05,29,15,42,16.00
2007,05,29,15,43,16.10
2007,05,29,15,44,16.20
2007,05,29,15,45,16.20
2007,05,29,15,46,16.20
2007,05,29,15,47,16.10
2007,05,29,15,48,16.10
2007,05,29,15,49,16.10
2007,05,29,15,50,16.10
2007,05,29,15,51,16.20
2007,05,29,15,52,16.30
2007,05,29,15,53,16.40
2007,05,29,15,54,16.50
2007,05,29,15,55,16.50
2007,05,29,15,56,16.40
2007,05,29,15,57,16.50
2007,05,29,15,58,16.50
2007,05,29,15,59,16.60
2007,05,29,16,00,16.60
2007,05,29,16,01,16.70
2007,05,29,16,02,16.70
2007,05,29,16,03,16.70
2007,05,29,16,04,16.60
2007,05,29,16,05,16.60
2007,05,29,16,06,16.50
2007,05,29,16,07,16.40
2007,05,29,16,08,16.30
2007,05,29,16,09,16.30
2007,05,29,16,10,16.30
2007,05,29,16,11,16.20
2007,05,29,16,12,16.10
2007,05,29,16,13,16.10
2007,05,29,16,14,16.00
2007,05,29,16,15,15.90
2007,05,29,16,16,15.90
2007,05,29,16,17,15.80
2007,05,29,16,18,15.80
2007,05,29,16,19,15.80
2007,05,29,16,20,15.80
2007,05,29,16,21,15.80
2007,05,29,16,22,15.80
2007,05,29,16,23,15.80
2007,05,29,16,24,15.90
2007,05,29,16,25,16.10
2007,05,29,16,26,16.20
2007,05,29,16,27,16.30
2007,05,29,16,28,16.30
2007,05,29,16,29,16.30
2007,05,29,16,30,16.40
2007,05,29,16,31,16.50
2007,05,29,16,32,16.70
2007,05,29,16,33,16.80
2007,05,29,16,34,16.80
2007,05,29,16,35,16.90
2007,05,29,16,36,16.80
2007,05,29,16,37,16.80
2007,05,29,16,38,16.80
2007,05,29,16,39,16.90
2007,05,29,16,40,17.00
2007,05,29,16,41,17.00
2007,05,29,16,42,17.00
2007,05,29,16,43,17.00
2007,05,29,16,44,17.00
2007,05,29,16,45,17.10
2007,05,29,16,46,17.10
2007,05,29,16,47,17.20
2007,05,29,16,48,17.20
2007,05,29,16,49,17.10
2007,05,29,16,50,17.00
2007,05,29,16,51,16.90
2007,05,29,16,52,16.90
2007,05,29,16,53,16.90
2007,05,29,16,54,16.80
2007,05,29,16,55,16.80
2007,05,29,16,56,16.70
2007,05,29,16,57,16.70
2007,05,29,16,58,16.70
2007,05,29,16,59,16.70
2007,05,29,17,00,16.80
2007,05,29,17,01,16.80
2007,05,29,17,02,16.90
2007,05,29,17,03,17.00
2007,05,29,17,04,17.10
2007,05,29,17,05,17.20
2007,05,29,17,06,17.20
2007,05,29,17,07,17.20
2007,05,29,17,08,17.30
2007,05,29,17,09,17.30
2007,05,29,17,10,17.40
2007,05,29,17,11,17.50
2007,05,29,17,12,17.70
2007,05,29,17,13,17.80
2007,05,29,17,14,17.80
2007,05,29,17,15,17.90
2007,05,29,17,16,18.00
2007,05,29,17,17,18.00
2007,05,29,17,18,18.10
2007,05,29,17,19,18.20
2007,05,29,17,20,18.20
2007,05,29,17,21,18.30
2007,05,29,17,22,18.30
2007,05,29,17,23,18.30
2007,05,29,17,24,18.30
2007,05,29,17,25,18.20
2007,05,29,17,26,18.10
2007,05,29,17,27,18.10
2007,05,29,17,28,18.00
2007,05,29,17,29,17.90
2007,05,29,17,30,17.70
2007,05,29,17,31,17.60
2007,05,29,17,32,17.50
2007,05,29,17,33,17.50
2007,05,29,17,34,17.40
2007,05,29,17,35,17.40
2007,05,29,17,36,17.40